Regional Weather Roundup
Issued by NWS

Home | Current Version | Previous Version | Text Only | Print | Product List | Glossary On
Versions: 1 2 3 4 5 6 7 8 9 10 11 12 13 14 15 16 17 18 19 20 21 22 23 24 25 26 27 28
000
ASUS46 KPQR 250910
RWROR

OREGON REGIONAL WEATHER ROUNDUP
NATIONAL WEATHER SERVICE PORTLAND OR
200 AM PDT SAT OCT 25 2014

NOTE: "FAIR" INDICATES FEW OR NO CLOUDS BELOW 12,000 FEET WITH
NO SIGNIFICANT WEATHER AND/OR OBSTRUCTIONS TO VISIBILITY.

ORZ001>013-251000-
NORTHWEST OREGON


CITY           SKY/WX    TMP DP  RH WIND       PRES   REMARKS
ASTORIA        CLOUDY    56  49  77 SE6       29.57F
NEWPORT        PTCLDY    54  50  87 E17       29.56F
PORTLAND       CLOUDY    48  48 100 CALM      29.62F
VANCOUVER WA   FOG       47  46  97 CALM      29.61F VSB 1
SCAPPOOSE      CLOUDY    49  47  93 W5        29.62F
HILLSBORO      CLOUDY    48  48 100 NW5       29.61F
AURORA         FOG       47  47 100 E3        29.62F VSB 1/4
MCMINNVILLE    CLOUDY    51  48  89 N6        29.61F
SALEM          FOG       47  46  97 CALM      29.60F VSB 1
CORVALLIS      CLOUDY    52  48  87 W3        29.63S
EUGENE         CLOUDY    51  50  96 N5        29.62F FOG
$$

ORZ021-028-251000-
SOUTHWEST OREGON


CITY           SKY/WX    TMP DP  RH WIND       PRES   REMARKS
NORTH BEND     CLOUDY    55  55 100 SW3       29.57S
BROOKINGS      LGT RAIN  57  55  93 S14G25    29.64R FOG
ROSEBURG       CLOUDY    55  52  89 CALM      29.60F FOG
SEXTON SUMMIT  PTCLDY    48  43  82 SE18G28   29.60F
MEDFORD        PTCLDY    51  49  92 CALM      29.61F
$$

ORZ009-041-251000-
COLUMBIA GORGE


CITY           SKY/WX    TMP DP  RH WIND       PRES   REMARKS
TROUTDALE      CLOUDY    57  48  72 E18       29.61F
THE DALLES     CLOUDY    52  50  93 CALM      29.79F
$$

ORZ029>031-042>050-061>064-251000-
EASTERN OREGON


CITY           SKY/WX    TMP DP  RH WIND       PRES   REMARKS
REDMOND        CLOUDY    45  44  97 E3        29.76F FOG
BEND           CLOUDY    45  45 100 CALM      29.77F
KLAMATH FALLS  PTCLDY    53  37  54 S14       29.81F
LAKEVIEW       MOCLDY    50  30  46 S15       29.90S
HERMISTON      CLOUDY    49  46  90 S3        29.80F
PENDLETON      FOG       47  46  97 CALM      29.79F VSB 1/4
JOHN DAY       PTSUNNY   53  42  66 E6        29.82F
MEACHAM        CLOUDY    50  44  80 VRB3      29.82F
LA GRANDE      CLOUDY    45  36  70 NW7       29.86F
BAKER CITY     FOG       34  34 100 CALM      29.90S VSB 1/4
BURNS          MOCLDY    34  32  92 W3        29.90S
ROME             N/A     41  38  89 E5        29.90F
ONTARIO        MOCLDY    44  42  93 SW3       29.92F
$$



USA.gov is the U.S. government's official web portal to all federal, state and local government web resources and services.